SCP
0 0 0 0 0 0 0 0 0 0 0 0 0 0 0 0 0 0 0 0 0 0 0 0 0 0 0 0 0 0 0 0 0 0 0 0 0 0 0 0 0 0 0
0 0 0 0 0 0 0 0 0 0 0 0 0 0 0 0 0 0 0 0 0 0 0 0 0 0 0 0 0 0 0 0 0 0 0 0 0 0 0 0 0 0 0
0 0 0 0 0 0 0 0 0 0 0 0 0 0 0 0 0 0 0 0 0 0 0 0 0 0 0 0 0 0 0 0 0 0 0 0 0 0 0 0 0 0 0
0 0 0 0 0 0 0 0 0 0 0 0 0 0 0 0 0 0 0 0 0 0 0 0 0 0 0 0 0 0 0 0 0 0 0 0 0 0 0 0 0 0 0
0 0 0 0 0 0 0 0 0 0 0 0 0 0 0 0 0 0 0 0 0 0 0 0 0 0 0 0 0 0 0 0 0 0 0 0 0 0 0 0 0 0 0
0 0 0 0 0 0 0 0 0 0 0 0 0 0 0 0 0 0 0 0 0 0 0 0 0 0 0 0 0 0 0 0 0 0 0 0 0 0 0 0 0 0 0
0 0 0 0 0 0 0 0 0 0 0 0 0 0 0 0 0 0 0 0 0 0 0 0 0 0 0 0 0 0 0 0 0 0 0 0 0 0 0 0 0 0 0
0 0 0 0 0 0 0 0 0 0 0 0 0 0 0 0 0 0 0 0 0 0 0 0 0 0 0 0 0 0 0 0 0 0 0 0 0 0 0 0 0 0 0
0 0 0 0 0 0 0 0 0 0 0 0 0 0 0 0 0 0 0 0 0 0 0 0 0 0 0 0 0 0 0 0 0 0 0 1 1 1 1 0 0 0 0
0 0 0 0 0 0 0 0 0 0 0 0 0 0 0 0 0 0 0 0 0 0 0 0 0 0 0 0 0 0 0 0 0 0 0 1 1 1 1 1 1 0 0
1 1 1 1 0 0 0 0 0 0 0 0 0 0 0 0 0 0 0 0 0 0 0 0 0 0 0 0 0 0 0 0 0 0 0 0 1 1 1 1 1 1 0
1 1 1 1 0 0 0 0 0 0 0 0 0 0 0 0 0 0 0 0 0 0 0 0 0 0 0 0 0 0 0 0 0 0 0 0 0 1 1 1 1 1 0
1 1 1 0 0 0 0 0 0 0 0 0 0 0 0 0 0 0 0 0 0 0 0 0 0 0 0 0 0 0 0 0 0 0 0 0 0 0 1 1 1 1 1
1 1 1 0 0 0 0 0 0 0 0 0 0 0 0 0 0 0 0 0 0 0 0 0 0 0 0 0 0 0 0 0 0 0 0 0 0 0 0 0 0 1 1
1 1 0 0 0 0 0 0 0 0 0 0 0 0 0 0 0 0 0 0 0 0 0 0 0 0 0 0 0 0 0 0 0 0 0 0 0 0 0 0 0 0 0
1 1 0 0 0 0 0 0 0 0 0 0 0 0 0 0 0 0 0 0 0 0 0 0 0 0 0 0 0 0 0 0 0 0 0 0 0 0 0 0 0 0 0
1 1 0 0 0 0 0 0 0 0 0 1 1 1 0 0 0 0 0 0 0 0 0 0 0 0 0 0 0 0 0 0 0 0 0 0 0 0 0 0 0 0 0
1 1 1 0 0 0 0 0 0 0 0 1 1 1 1 0 0 0 0 0 0 0 0 0 0 0 0 0 0 0 0 0 0 0 0 0 0 0 0 0 0 0 0
1 1 1 1 1 1 1 1 0 0 0 1 1 1 1 0 0 0 0 0 0 0 0 0 0 0 0 0 0 0 0 0 0 0 0 0 0 0 0 0 0 0 0
1 1 1 1 1 1 1 1 1 0 0 0 1 1 1 0 0 0 0 0 0 0 0 0 0 0 0 0 0 0 0 0 0 0 0 0 0 0 0 0 0 0 0
1 1 0 1 1 1 1 1 1 1 0 0 1 1 0 0 0 0 0 0 0 0 0 0 0 0 0 0 0 0 0 0 0 0 0 0 0 0 0 0 0 0 0
1 1 1 1 1 1 1 1 1 1 1 1 0 0 0 0 0 0 0 0 0 0 0 0 0 0 0 0 0 0 0 0 0 0 0 0 0 0 1 0 0 0 0
1 1 1 1 1 1 0 0 0 0 0 0 0 0 0 0 0 0 0 0 0 0 0 0 0 0 0 0 0 0 0 0 0 0 0 0 0 1 1 0 0 0 0
1 1 1 1 1 1 0 0 0 0 0 0 0 0 0 0 0 0 0 0 0 0 0 0 0 0 0 0 0 0 0 0 0 0 0 0 0 0 0 0 0 0 0
2 2 2 2 2 1 0 0 0 0 0 0 0 0 0 0 0 0 0 0 0 0 0 0 0 0 0 0 0 0 0 0 0 0 0 0 0 0 0 0 0 0 0
2 2 2 2 2 1 0 0 0 0 1 0 0 0 0 0 0 0 0 0 1 1 0 0 0 0 0 0 0 0 0 0 0 0 0 0 0 0 0 0 0 0 0
Wind_Speed
3 2 1 1 1 1 1 2 2 2 2 2 2 3 4 4 4 3 2 6 7 6 7 7 7 8 7 7 7 7 8 8 8 7 7 7 7 7 7 7 7 7 6
3 3 2 2 1 1 1 2 2 2 2 1 2 3 3 3 3 3 2 3 6 6 6 7 7 8 7 7 7 7 7 8 8 7 7 7 7 7 7 7 7 7 6
4 3 3 2 2 2 2 2 3 2 2 2 2 2 2 2 3 3 2 1 2 4 5 6 6 6 7 7 7 7 7 7 8 8 7 7 6 6 6 7 7 7 6
5 4 3 2 2 2 2 3 2 2 2 2 1 1 1 1 2 2 2 2 1 2 3 5 5 5 6 7 7 7 7 7 8 8 8 8 7 7 6 6 7 7 6
5 4 3 3 3 3 2 2 2 2 2 2 2 2 1 1 1 2 2 2 2 2 1 2 4 5 6 7 7 8 8 8 8 8 9 9 9 8 7 7 7 7 7
6 5 3 3 3 3 2 2 3 2 2 2 2 3 2 1 0 1 1 1 2 3 3 2 2 3 5 6 6 7 8 8 8 9 9 9 9 9 8 8 8 8 8
6 5 4 4 4 3 3 4 3 3 2 2 3 2 2 2 1 1 1 1 2 3 3 3 2 2 2 4 5 6 7 8 9 9 9 9 9 9 9 9 9 9 9
6 6 5 4 4 3 3 3 3 3 2 2 3 2 1 2 2 1 1 1 2 2 3 4 3 3 3 2 3 5 7 7 8 8 8 8 8 9 9 9 9 9 9
6 6 6 5 5 4 4 3 3 4 3 1 1 3 3 2 1 2 1 1 1 2 2 2 4 4 4 3 3 4 5 6 7 7 7 7 7 8 8 9 9 9 9
6 6 6 6 5 4 4 4 3 3 4 3 1 1 1 3 2 0 2 1 1 2 3 3 3 4 4 3 4 5 6 6 7 7 7 7 8 8 9 9 9 9 9
5 6 6 5 5 4 4 4 4 3 3 3 3 2 2 2 1 2 1 2 2 2 2 3 3 3 4 4 4 5 7 7 7 7 7 7 7 8 8 9 9 9 9
3 4 5 5 5 4 5 4 4 5 3 3 3 3 3 3 2 2 2 2 2 2 2 2 3 3 3 4 6 7 8 7 7 7 7 7 7 7 8 8 8 9 9
3 5 5 5 4 4 5 4 4 4 4 4 4 2 2 2 2 3 2 1 1 2 2 2 3 3 4 4 4 7 7 8 8 8 7 7 7 7 7 8 8 9 9
5 6 6 5 5 5 5 4 3 3 3 4 4 3 2 2 3 3 3 3 1 1 2 3 2 3 3 4 5 6 5 8 8 8 9 8 8 7 8 8 8 8 8
4 6 6 6 5 5 5 5 3 4 4 4 4 4 2 2 2 2 2 3 4 2 2 3 2 2 2 3 5 4 5 7 8 9 9 9 9 9 8 8 9 9 9
5 6 6 6 5 5 6 5 4 4 4 4 3 4 3 2 2 2 3 2 2 3 3 2 2 2 2 2 4 4 5 6 8 8 9 9 9 9 10 10 10 9 9
6 7 7 6 6 5 5 5 5 5 5 4 4 4 4 3 2 2 2 2 2 3 3 2 2 2 2 2 2 2 3 4 4 7 8 9 10 10 10 10 9 9 9
6 6 6 6 6 6 6 6 6 6 6 6 5 4 4 3 3 3 2 3 3 3 3 3 2 1 2 2 2 2 2 3 3 5 7 8 9 9 9 9 9 9 10
6 6 6 6 6 6 6 6 6 6 6 6 5 5 5 5 4 3 3 3 3 3 3 3 2 1 1 1 1 2 2 2 3 4 5 7 7 8 8 9 9 9 10
6 5 5 6 5 5 5 6 6 6 5 5 5 5 5 5 5 5 4 4 3 2 2 2 2 1 2 1 1 2 2 2 2 3 3 4 4 5 7 8 8 9 9
6 5 5 4 4 4 4 5 6 6 6 5 4 4 4 5 5 4 3 3 3 2 2 2 2 1 1 1 1 1 2 3 2 2 2 2 3 3 4 6 7 8 8
4 5 5 5 4 3 5 7 6 5 4 4 3 3 2 2 3 3 3 3 3 3 2 2 1 1 2 2 2 2 2 2 3 1 2 3 2 3 4 4 5 7 8
5 5 4 4 4 3 4 5 6 4 3 3 2 2 1 1 2 2 2 2 1 1 3 3 2 2 2 2 2 2 2 3 3 2 2 3 2 3 3 3 5 6 7
4 4 4 3 3 2 3 4 5 4 3 2 2 2 2 1 1 2 2 2 2 1 0 1 1 2 2 2 2 2 3 3 3 2 1 3 3 3 4 4 5 5 5
4 4 4 4 4 2 3 4 6 4 4 3 2 2 2 2 2 3 3 3 2 2 3 3 2 2 3 3 1 0 1 1 3 2 1 2 3 4 4 4 3 4 5
5 5 5 5 5 4 5 5 5 4 4 3 3 4 5 5 5 5 3 3 2 2 3 3 4 5 4 4 4 1 1 2 2 3 1 2 2 3 4 2 3 4 4
Wind_Direction
150 143 132 118 109 98 98 98 94 95 95 112 139 149 152 150 148 144 158 178 175 172 171 168 168 168 166 166 166 163 161 159 156 154 156 156 156 154 153 154 152 149 149
160 155 153 150 144 126 115 112 105 100 91 103 119 136 144 144 147 143 146 178 179 175 178 179 179 178 177 177 175 176 175 173 170 167 165 165 166 167 168 169 168 164 162
166 160 161 165 161 132 115 97 89 87 98 97 98 113 123 135 146 148 145 138 172 188 187 190 194 192 189 186 184 185 185 183 181 178 175 175 174 176 178 178 177 176 175
168 160 163 171 154 129 119 113 103 94 88 93 91 87 102 129 155 155 153 159 164 188 198 201 198 202 204 199 196 196 194 192 189 189 187 188 189 189 187 187 188 187 188
170 165 167 163 148 131 129 134 103 112 120 113 106 66 50 68 151 177 188 192 188 186 193 221 209 209 216 212 207 205 203 204 200 200 201 202 202 201 200 200 199 200 201
169 164 159 156 147 134 130 122 114 92 101 112 96 66 33 19 35 229 229 207 202 203 200 209 213 228 231 229 219 213 212 213 209 208 211 213 214 209 208 209 209 208 210
165 162 159 155 155 153 156 141 117 105 93 98 89 55 21 21 21 313 274 232 225 218 205 205 206 214 238 244 232 220 217 220 217 213 215 218 219 215 213 214 216 216 216
166 170 163 164 160 146 143 144 128 118 104 113 122 107 45 355 348 350 303 239 242 229 223 217 208 210 220 230 240 237 226 227 228 223 221 220 223 222 219 220 220 221 222
172 170 170 163 161 159 162 163 149 141 140 113 120 141 148 208 293 329 319 278 255 234 237 234 224 220 218 219 234 246 239 229 229 230 229 228 226 226 224 225 226 226 226
174 174 170 165 165 163 165 173 163 148 140 144 125 86 125 147 152 276 322 314 282 243 241 242 237 230 224 222 227 234 237 231 231 234 233 232 230 229 228 228 232 233 231
177 175 169 166 167 168 169 167 158 153 147 153 156 144 120 88 109 145 241 307 312 274 253 244 240 236 228 225 229 235 234 232 230 232 234 237 237 235 233 233 240 243 240
173 176 171 169 170 169 170 172 168 163 160 151 152 154 154 157 175 162 184 237 271 296 282 250 239 237 232 228 235 234 231 229 230 233 236 238 241 242 241 241 244 247 248
179 183 176 171 170 174 172 165 166 168 167 163 165 168 170 173 159 156 158 186 245 296 304 271 242 238 235 226 234 236 235 230 229 233 235 237 238 240 244 245 250 254 258
184 177 177 177 177 174 172 166 164 173 170 172 175 169 173 183 175 172 166 156 164 299 295 279 281 240 238 230 233 230 238 233 230 231 234 235 237 241 245 248 252 256 258
175 175 178 176 179 176 171 166 173 179 172 179 180 179 183 192 188 187 175 167 161 190 254 272 276 278 245 236 236 228 232 237 234 234 236 237 238 241 245 249 250 251 250
171 169 177 178 178 177 175 172 174 180 176 183 180 179 186 189 189 182 181 181 176 174 218 252 255 276 281 264 237 229 236 239 240 239 239 241 243 245 247 248 248 248 248
176 179 180 179 180 181 180 177 182 181 185 189 188 189 196 183 184 188 178 174 180 173 207 259 261 276 271 279 285 250 245 241 244 241 240 241 244 246 248 248 248 247 247
184 184 178 179 184 186 183 184 190 190 192 195 196 191 200 188 190 191 187 191 193 192 197 232 259 272 267 279 279 275 268 254 251 251 244 245 245 246 246 246 247 248 249
182 180 175 182 188 187 189 195 195 193 197 198 193 193 200 190 200 199 197 200 202 197 197 213 249 266 283 299 304 293 288 284 272 262 252 251 252 253 252 250 247 248 250
178 177 181 186 187 186 191 195 194 193 195 199 198 199 202 200 206 201 201 204 197 189 188 208 240 263 277 299 297 293 298 291 293 295 285 277 269 263 259 256 253 249 249
182 177 176 177 178 180 193 187 187 188 189 193 193 196 200 198 199 189 188 195 187 190 194 210 235 253 278 294 279 277 277 293 287 282 295 291 283 277 272 265 261 256 254
173 168 171 170 172 192 195 185 178 177 177 180 184 186 187 188 183 166 162 156 158 175 193 198 217 236 269 269 275 273 281 296 291 289 285 288 276 275 275 266 265 265 265
164 163 167 164 170 183 175 171 169 155 154 161 169 167 159 132 161 157 141 132 139 156 177 188 209 235 254 259 257 266 254 255 265 292 278 283 281 283 288 288 276 274 277
156 154 150 152 145 123 127 138 144 137 123 124 135 141 138 109 108 135 126 104 83 55 108 179 215 250 264 269 248 268 273 273 269 273 252 271 286 284 296 291 290 289 290
130 123 114 119 114 89 103 137 140 130 117 102 88 86 115 112 74 114 118 109 78 38 51 56 42 16 11 8 356 307 299 293 291 290 272 274 290 295 290 284 292 304 306
115 108 93 85 86 68 59 92 119 120 115 103 82 68 67 73 64 78 98 100 80 25 28 34 34 27 25 25 28 12 292 277 285 292 340 301 296 307 297 287 302 312 311